| time (UTC) | temp F | wind direction | speed knots | gust knots | rain 1hr in | rain 24hr in | rain mn in | humidity % | barometer mb |
| 20260507231508 | 51 | 262 | 4.3 | 5.2 | 0.00 | 0.00 | 0.00 | 91 | 1006.5 |
| 20260507230509 | 51 | 273 | 1.7 | 3.5 | 0.00 | 0.00 | 0.00 | 90 | 1006.7 |
| 20260507230008 | 52 | 279 | 0.9 | 3.5 | 0.00 | 0.00 | 0.00 | 90 | 1006.7 |
| 20260507225508 | 52 | 280 | 1.7 | 3.5 | 0.00 | 0.00 | 0.00 | 90 | 1006.5 |
| 20260507225008 | 52 | 270 | 1.7 | 3.5 | 0.00 | 0.00 | 0.00 | 90 | 1006.6 |
| 20260507224508 | 52 | 270 | 0.0 | 1.7 | 0.00 | 0.00 | 0.00 | 89 | 1006.6 |
| 20260507224008 | 52 | 270 | 0.0 | 1.7 | 0.00 | 0.00 | 0.00 | 88 | 1006.6 |
| 20260507223507 | 52 | 270 | 0.0 | 1.7 | 0.00 | 0.00 | 0.00 | 88 | 1006.6 |
| 20260507223008 | 52 | 270 | 0.0 | 1.7 | 0.00 | 0.00 | 0.00 | 88 | 1006.7 |
| 20260507222507 | 52 | 0 | 0.0 | 0.0 | 0.00 | 0.00 | 0.00 | 88 | 1006.6 |
| 20260507222008 | 52 | 0 | 0.0 | 0.0 | 0.00 | 0.00 | 0.00 | 88 | 1006.5 |
| 20260507221508 | 52 | 282 | 0.0 | 3.5 | 0.00 | 0.00 | 0.00 | 88 | 1006.5 |
| 20260507221007 | 52 | 278 | 0.0 | 3.5 | 0.00 | 0.00 | 0.00 | 88 | 1006.5 |
| 20260507220009 | 52 | 270 | 1.7 | 3.5 | 0.00 | 0.00 | 0.00 | 88 | 1006.5 |
| 20260507215507 | 52 | 270 | 1.7 | 1.7 | 0.00 | 0.00 | 0.00 | 87 | 1006.7 |
| 20260507215007 | 52 | 275 | 0.0 | 1.7 | 0.00 | 0.00 | 0.00 | 86 | 1006.5 |
| 20260507214508 | 52 | 287 | 0.0 | 1.7 | 0.00 | 0.00 | 0.00 | 86 | 1006.6 |
| 20260507214007 | 52 | 292 | 0.9 | 1.7 | 0.00 | 0.00 | 0.00 | 86 | 1006.6 |
| 20260507213507 | 52 | 279 | 1.7 | 3.5 | 0.00 | 0.00 | 0.00 | 85 | 1006.4 |
| 20260507213008 | 52 | 270 | 0.9 | 3.5 | 0.00 | 0.00 | 0.00 | 86 | 1006.5 |
| 20260507212508 | 52 | 273 | 1.7 | 3.5 | 0.00 | 0.00 | 0.00 | 85 | 1006.5 |
| 20260507212007 | 53 | 283 | 1.7 | 3.5 | 0.00 | 0.00 | 0.00 | 84 | 1006.2 |
| 20260507211506 | 53 | 292 | 1.7 | 3.5 | 0.00 | 0.00 | 0.00 | 83 | 1006.4 |
| 20260507211006 | 53 | 292 | 1.7 | 3.5 | 0.00 | 0.00 | 0.00 | 82 | 1006.4 |
| 20260507210507 | 53 | 291 | 0.9 | 3.5 | 0.00 | 0.00 | 0.00 | 82 | 1006.1 |
| 20260507210007 | 53 | 292 | 1.7 | 1.7 | 0.00 | 0.00 | 0.00 | 82 | 1006.2 |
| 20260507205506 | 53 | 295 | 0.0 | 3.5 | 0.00 | 0.00 | 0.00 | 81 | 1006.0 |
| 20260507205007 | 53 | 298 | 0.9 | 3.5 | 0.00 | 0.00 | 0.00 | 81 | 1006.1 |
| 20260507204006 | 53 | 293 | 1.7 | 3.5 | 0.00 | 0.00 | 0.00 | 80 | 1006.0 |
| 20260507203508 | 53 | 293 | 1.7 | 3.5 | 0.00 | 0.00 | 0.00 | 80 | 1005.8 |
| 20260507203006 | 53 | 297 | 1.7 | 3.5 | 0.00 | 0.00 | 0.00 | 80 | 1005.8 |
| 20260507202506 | 53 | 312 | 1.7 | 6.1 | 0.00 | 0.00 | 0.00 | 80 | 1005.8 |
| 20260507201506 | 53 | 308 | 2.6 | 5.2 | 0.00 | 0.00 | 0.00 | 80 | 1005.7 |
| 20260507201007 | 53 | 306 | 1.7 | 3.5 | 0.00 | 0.00 | 0.00 | 80 | 1005.5 |
| 20260507200007 | 54 | 303 | 0.9 | 5.2 | 0.00 | 0.00 | 0.00 | 79 | 1005.6 |
| 20260507195506 | 54 | 307 | 1.7 | 7.0 | 0.00 | 0.00 | 0.00 | 78 | 1005.5 |
| 20260507195007 | 54 | 313 | 2.6 | 7.0 | 0.00 | 0.00 | 0.00 | 78 | 1005.5 |
| 20260507194507 | 54 | 319 | 3.5 | 7.0 | 0.00 | 0.00 | 0.00 | 78 | 1005.4 |
| 20260507194006 | 54 | 322 | 3.5 | 9.6 | 0.00 | 0.00 | 0.00 | 77 | 1005.4 |
| 20260507193506 | 54 | 317 | 4.3 | 9.6 | 0.00 | 0.00 | 0.00 | 77 | 1005.4 |
| 20260507193007 | 54 | 312 | 5.2 | 7.8 | 0.00 | 0.00 | 0.00 | 77 | 1005.4 |
| 20260507192506 | 54 | 310 | 4.3 | 9.6 | 0.00 | 0.00 | 0.00 | 76 | 1005.3 |
| 20260507191506 | 55 | 311 | 6.1 | 13.9 | 0.00 | 0.00 | 0.00 | 74 | 1005.2 |
| 20260507190506 | 56 | 331 | 5.2 | 7.8 | 0.00 | 0.00 | 0.00 | 69 | 1005.0 |
| 20260507185506 | 57 | 339 | 5.2 | 7.8 | 0.00 | 0.00 | 0.00 | 67 | 1004.8 |
| 20260507185006 | 57 | 331 | 2.6 | 7.8 | 0.00 | 0.00 | 0.00 | 67 | 1004.7 |
| 20260507184505 | 57 | 312 | 3.5 | 6.1 | 0.00 | 0.00 | 0.00 | 66 | 1004.5 |
| 20260507183505 | 58 | 292 | 3.5 | 7.0 | 0.00 | 0.00 | 0.00 | 65 | 1004.6 |
| 20260507183005 | 58 | 303 | 3.5 | 9.6 | 0.00 | 0.00 | 0.00 | 65 | 1004.5 |
| 20260507182506 | 58 | 311 | 3.5 | 9.6 | 0.00 | 0.00 | 0.00 | 64 | 1004.3 |
| 20260507182005 | 58 | 312 | 2.6 | 6.1 | 0.00 | 0.00 | 0.00 | 64 | 1004.4 |
| 20260507181505 | 58 | 314 | 2.6 | 7.8 | 0.00 | 0.00 | 0.00 | 64 | 1004.3 |
| 20260507181005 | 59 | 312 | 3.5 | 7.8 | 0.00 | 0.00 | 0.00 | 61 | 1004.3 |
| 20260507180505 | 59 | 322 | 4.3 | 11.3 | 0.00 | 0.00 | 0.00 | 61 | 1004.2 |
| 20260507180006 | 59 | 331 | 1.7 | 11.3 | 0.00 | 0.00 | 0.00 | 61 | 1004.1 |
| 20260507175506 | 60 | 325 | 7.0 | 12.2 | 0.00 | 0.00 | 0.00 | 59 | 1004.1 |
| 20260507175006 | 60 | 313 | 1.7 | 12.2 | 0.00 | 0.00 | 0.00 | 58 | 1004.1 |
| 20260507174505 | 60 | 307 | 4.3 | 7.8 | 0.00 | 0.00 | 0.00 | 57 | 1004.1 |
| 20260507174005 | 60 | 309 | 3.5 | 7.8 | 0.00 | 0.00 | 0.00 | 56 | 1004.0 |
| 20260507173505 | 61 | 318 | 3.5 | 7.8 | 0.00 | 0.00 | 0.00 | 56 | 1004.1 |
| 20260507173005 | 61 | 330 | 3.5 | 7.8 | 0.00 | 0.00 | 0.00 | 55 | 1004.0 |
| 20260507172505 | 61 | 328 | 3.5 | 9.6 | 0.00 | 0.00 | 0.00 | 55 | 1003.8 |
| 20260507171504 | 61 | 307 | 6.1 | 9.6 | 0.00 | 0.00 | 0.00 | 54 | 1003.9 |
| 20260507171004 | 60 | 294 | 2.6 | 9.6 | 0.00 | 0.00 | 0.00 | 56 | 1003.9 |
| 20260507170505 | 60 | 292 | 4.3 | 13.0 | 0.00 | 0.00 | 0.00 | 56 | 1003.9 |
| 20260507170005 | 60 | 299 | 5.2 | 13.0 | 0.00 | 0.00 | 0.00 | 54 | 1003.7 |
| 20260507165505 | 61 | 302 | 4.3 | 11.3 | 0.00 | 0.00 | 0.00 | 56 | 1003.8 |
| 20260507165006 | 61 | 299 | 4.3 | 12.2 | 0.00 | 0.00 | 0.00 | 57 | 1003.7 |
| 20260507164505 | 61 | 300 | 7.0 | 15.6 | 0.00 | 0.00 | 0.00 | 56 | 1003.7 |
| 20260507164004 | 61 | 290 | 8.7 | 15.6 | 0.00 | 0.00 | 0.00 | 57 | 1003.6 |
| 20260507163505 | 61 | 292 | 7.0 | 13.0 | 0.00 | 0.00 | 0.00 | 57 | 1003.7 |
| 20260507163004 | 61 | 310 | 3.5 | 12.2 | 0.00 | 0.00 | 0.00 | 57 | 1003.5 |
| 20260507162505 | 61 | 311 | 6.1 | 11.3 | 0.00 | 0.00 | 0.00 | 57 | 1003.7 |
| 20260507162004 | 61 | 315 | 7.8 | 11.3 | 0.00 | 0.00 | 0.00 | 59 | 1003.5 |
| 20260507161504 | 61 | 311 | 5.2 | 11.3 | 0.00 | 0.00 | 0.00 | 59 | 1003.5 |
| 20260507161004 | 62 | 298 | 7.0 | 11.3 | 0.00 | 0.00 | 0.00 | 58 | 1003.4 |
| 20260507160006 | 61 | 302 | 5.2 | 12.2 | 0.00 | 0.00 | 0.00 | 60 | 1003.5 |
| 20260507154504 | 62 | 317 | 9.6 | 14.8 | 0.00 | 0.00 | 0.00 | 60 | 1003.4 |
| 20260507154004 | 62 | 319 | 7.8 | 14.8 | 0.00 | 0.00 | 0.00 | 59 | 1003.2 |
| 20260507153504 | 62 | 310 | 7.0 | 14.8 | 0.00 | 0.00 | 0.00 | 58 | 1003.3 |
| 20260507152503 | 64 | 302 | 6.1 | 12.2 | 0.00 | 0.00 | 0.00 | 55 | 1003.2 |
| 20260507152004 | 64 | 297 | 7.0 | 9.6 | 0.00 | 0.00 | 0.00 | 55 | 1003.1 |
| 20260507151503 | 64 | 308 | 6.1 | 9.6 | 0.00 | 0.00 | 0.00 | 56 | 1003.0 |
| 20260507151004 | 63 | 313 | 7.0 | 9.6 | 0.00 | 0.00 | 0.00 | 56 | 1003.0 |
| 20260507150503 | 64 | 310 | 7.0 | 11.3 | 0.00 | 0.00 | 0.00 | 57 | 1003.0 |
| 20260507150005 | 64 | 297 | 6.1 | 13.9 | 0.00 | 0.00 | 0.00 | 55 | 1003.3 |
| 20260507145504 | 63 | 275 | 3.5 | 13.9 | 0.00 | 0.00 | 0.00 | 56 | 1003.0 |
| 20260507144003 | 62 | 302 | 4.3 | 12.2 | 0.00 | 0.00 | 0.00 | 58 | 1003.2 |
| 20260507143503 | 63 | 300 | 6.1 | 12.2 | 0.00 | 0.00 | 0.00 | 56 | 1003.1 |
| 20260507143004 | 64 | 286 | 4.3 | 13.0 | 0.00 | 0.00 | 0.00 | 58 | 1003.1 |
| 20260507142504 | 63 | 286 | 6.1 | 13.0 | 0.00 | 0.00 | 0.00 | 57 | 1003.2 |
| 20260507142004 | 61 | 286 | 7.8 | 12.2 | 0.00 | 0.00 | 0.00 | 62 | 1003.1 |
| 20260507141503 | 62 | 285 | 7.0 | 11.3 | 0.00 | 0.00 | 0.00 | 59 | 1003.1 |
| 20260507141004 | 62 | 297 | 3.5 | 12.2 | 0.00 | 0.00 | 0.00 | 58 | 1003.2 |
| 20260507140504 | 62 | 309 | 7.0 | 13.0 | 0.00 | 0.00 | 0.00 | 57 | 1003.3 |
| 20260507140005 | 64 | 311 | 7.0 | 13.0 | 0.00 | 0.00 | 0.00 | 57 | 1003.2 |
| 20260507135503 | 63 | 303 | 9.6 | 13.0 | 0.00 | 0.00 | 0.00 | 57 | 1003.2 |
| 20260507135003 | 63 | 308 | 6.1 | 14.8 | 0.00 | 0.00 | 0.00 | 56 | 1003.1 |
| 20260507134603 | 63 | 317 | 7.0 | 14.8 | 0.00 | 0.00 | 0.00 | 54 | 1003.0 |
| 20260507134104 | 63 | 312 | 3.5 | 14.8 | 0.00 | 0.00 | 0.00 | 57 | 1003.0 |
| 20260507133604 | 64 | 305 | 4.3 | 14.8 | 0.00 | 0.00 | 0.00 | 56 | 1003.1 |
| 20260507133104 | 64 | 289 | 7.0 | 12.2 | 0.00 | 0.00 | 0.00 | 55 | 1003.2 |
| 20260507132603 | 64 | 290 | 5.2 | 12.2 | 0.00 | 0.00 | 0.00 | 57 | 1003.2 |
| 20260507132103 | 63 | 300 | 7.0 | 13.9 | 0.00 | 0.00 | 0.00 | 57 | 1003.3 |
| 20260507131603 | 63 | 294 | 8.7 | 13.9 | 0.00 | 0.00 | 0.00 | 57 | 1003.1 |
| 20260507131103 | 64 | 295 | 6.1 | 11.3 | 0.00 | 0.00 | 0.00 | 58 | 1003.2 |
| 20260507130603 | 63 | 284 | 7.0 | 12.2 | 0.00 | 0.00 | 0.00 | 58 | 1003.2 |
| 20260507130104 | 64 | 282 | 5.2 | 13.0 | 0.00 | 0.00 | 0.00 | 57 | 1003.1 |
| 20260507125603 | 64 | 301 | 7.0 | 13.0 | 0.00 | 0.00 | 0.00 | 57 | 1003.4 |
| 20260507124604 | 63 | 310 | 5.2 | 12.2 | 0.00 | 0.00 | 0.00 | 58 | 1003.2 |
| 20260507124103 | 63 | 316 | 6.1 | 14.8 | 0.00 | 0.00 | 0.00 | 58 | 1003.1 |
| 20260507123604 | 64 | 309 | 4.3 | 14.8 | 0.00 | 0.00 | 0.00 | 57 | 1003.4 |
| 20260507123103 | 64 | 304 | 9.6 | 14.8 | 0.00 | 0.00 | 0.00 | 60 | 1003.2 |
| 20260507122603 | 64 | 302 | 7.0 | 9.6 | 0.00 | 0.00 | 0.00 | 57 | 1003.2 |
| 20260507122103 | 62 | 291 | 6.1 | 11.3 | 0.00 | 0.00 | 0.00 | 59 | 1003.1 |
| 20260507121602 | 65 | 270 | 6.1 | 11.3 | 0.00 | 0.00 | 0.00 | 56 | 1003.3 |
| 20260507121103 | 65 | 271 | 6.1 | 11.3 | 0.00 | 0.00 | 0.00 | 56 | 1003.2 |
| 20260507120603 | 65 | 287 | 6.1 | 11.3 | 0.00 | 0.00 | 0.00 | 56 | 1003.1 |
| 20260507120104 | 64 | 321 | 1.7 | 7.8 | 0.00 | 0.00 | 0.00 | 59 | 1003.4 |
| 20260507115602 | 63 | 303 | 6.1 | 7.8 | 0.00 | 0.00 | 0.00 | 62 | 1003.2 |
| 20260507115103 | 63 | 272 | 6.1 | 7.8 | 0.00 | 0.00 | 0.00 | 62 | 1003.2 |
| 20260507114103 | 63 | 171 | 2.6 | 7.8 | 0.00 | 0.00 | 0.00 | 61 | 1003.3 |
| 20260507113602 | 63 | 158 | 5.2 | 7.0 | 0.00 | 0.00 | 0.00 | 61 | 1003.1 |
| 20260507113103 | 63 | 176 | 5.2 | 7.8 | 0.00 | 0.00 | 0.00 | 61 | 1003.2 |
| 20260507112603 | 63 | 263 | 5.2 | 7.8 | 0.00 | 0.00 | 0.00 | 61 | 1003.2 |
| 20260507111603 | 63 | 285 | 6.1 | 7.8 | 0.00 | 0.00 | 0.00 | 61 | 1003.1 |
| 20260507111102 | 62 | 272 | 3.5 | 7.8 | 0.00 | 0.00 | 0.00 | 64 | 1003.1 |
| 20260507110602 | 61 | 282 | 5.2 | 7.0 | 0.00 | 0.00 | 0.00 | 66 | 1003.1 |
| 20260507105603 | 62 | 204 | 4.3 | 7.0 | 0.00 | 0.00 | 0.00 | 64 | 1003.1 |
| 20260507105103 | 63 | 221 | 3.5 | 7.8 | 0.00 | 0.00 | 0.00 | 62 | 1003.1 |
| 20260507104602 | 62 | 258 | 3.5 | 7.8 | 0.00 | 0.00 | 0.00 | 63 | 1003.0 |
| 20260507104103 | 60 | 266 | 1.7 | 7.8 | 0.00 | 0.00 | 0.00 | 67 | 1002.9 |
| 20260507102102 | 61 | 230 | 4.3 | 9.6 | 0.00 | 0.00 | 0.00 | 64 | 1002.9 |
| 20260507101601 | 61 | 233 | 6.1 | 9.6 | 0.00 | 0.00 | 0.00 | 66 | 1003.0 |
| 20260507101102 | 61 | 235 | 6.1 | 9.6 | 0.00 | 0.00 | 0.00 | 66 | 1003.0 |
| 20260507100601 | 61 | 259 | 6.1 | 9.6 | 0.00 | 0.00 | 0.00 | 68 | 1003.0 |
| 20260507095602 | 59 | 270 | 7.8 | 9.6 | 0.00 | 0.00 | 0.00 | 70 | 1003.1 |
| 20260507095101 | 59 | 270 | 7.8 | 9.6 | 0.00 | 0.00 | 0.00 | 70 | 1003.0 |
| 20260507094602 | 58 | 270 | 7.0 | 9.6 | 0.00 | 0.00 | 0.00 | 75 | 1003.1 |
| 20260507094101 | 58 | 270 | 7.0 | 9.6 | 0.00 | 0.00 | 0.00 | 75 | 1003.0 |
| 20260507093602 | 58 | 277 | 7.0 | 11.3 | 0.00 | 0.00 | 0.00 | 75 | 1002.9 |
| 20260507093103 | 58 | 288 | 7.0 | 11.3 | 0.00 | 0.00 | 0.00 | 76 | 1002.9 |
| 20260507092601 | 59 | 281 | 7.0 | 11.3 | 0.00 | 0.00 | 0.00 | 73 | 1002.9 |
| 20260507092101 | 59 | 265 | 5.2 | 9.6 | 0.00 | 0.00 | 0.00 | 73 | 1002.9 |
| 20260507091103 | 58 | 255 | 7.0 | 9.6 | 0.00 | 0.00 | 0.00 | 76 | 1002.8 |
| 20260507090601 | 58 | 277 | 7.0 | 11.3 | 0.00 | 0.00 | 0.00 | 76 | 1002.8 |
| 20260507085603 | 59 | 292 | 7.0 | 11.3 | 0.00 | 0.00 | 0.00 | 72 | 1002.5 |
| 20260507084603 | 57 | 273 | 7.0 | 14.8 | 0.00 | 0.00 | 0.00 | 75 | 1002.7 |
| 20260507084105 | 58 | 273 | 8.7 | 13.0 | 0.00 | 0.00 | 0.00 | 75 | 1002.6 |
| 20260507083604 | 59 | 275 | 7.0 | 13.0 | 0.00 | 0.00 | 0.00 | 75 | 1002.5 |
| 20260507083104 | 56 | 268 | 7.0 | 13.0 | 0.00 | 0.00 | 0.00 | 76 | 1002.6 |
| 20260507082604 | 57 | 282 | 7.0 | 13.9 | 0.00 | 0.00 | 0.00 | 78 | 1002.6 |
| 20260507082105 | 57 | 287 | 3.5 | 13.9 | 0.00 | 0.00 | 0.00 | 79 | 1002.4 |
| 20260507081605 | 57 | 285 | 9.6 | 13.9 | 0.00 | 0.00 | 0.00 | 79 | 1002.6 |
| 20260507081106 | 57 | 285 | 9.6 | 14.8 | 0.00 | 0.00 | 0.00 | 78 | 1002.5 |
| 20260507080605 | 57 | 277 | 9.6 | 14.8 | 0.00 | 0.00 | 0.00 | 78 | 1002.6 |
| 20260507080107 | 56 | 286 | 7.8 | 13.0 | 0.00 | 0.00 | 0.00 | 81 | 1002.8 |
| 20260507075607 | 56 | 277 | 7.0 | 13.0 | 0.00 | 0.00 | 0.00 | 82 | 1002.6 |
| 20260507075106 | 56 | 266 | 10.4 | 13.0 | 0.00 | 0.00 | 0.00 | 82 | 1002.5 |
| 20260507074606 | 56 | 271 | 10.4 | 13.0 | 0.00 | 0.00 | 0.00 | 82 | 1002.5 |
| 20260507074107 | 55 | 274 | 9.6 | 13.0 | 0.00 | 0.00 | 0.00 | 82 | 1002.3 |
| 20260507073606 | 55 | 277 | 8.7 | 14.8 | 0.00 | 0.00 | 0.00 | 83 | 1002.4 |
| 20260507073106 | 55 | 273 | 10.4 | 14.8 | 0.00 | 0.00 | 0.00 | 83 | 1002.4 |
| 20260507072607 | 55 | 267 | 5.2 | 9.6 | 0.00 | 0.00 | 0.00 | 86 | 1002.3 |
| 20260507072106 | 55 | 271 | 7.8 | 11.3 | 0.00 | 0.00 | 0.00 | 84 | 1002.3 |
| 20260507071606 | 55 | 289 | 3.5 | 12.2 | 0.00 | 0.00 | 0.00 | 85 | 1002.4 |
| 20260507070607 | 55 | 283 | 7.0 | 11.3 | 0.00 | 0.00 | 0.00 | 84 | 1002.0 |
| 20260507070108 | 55 | 276 | 7.8 | 12.2 | 0.00 | 0.00 | 0.00 | 84 | 1002.2 |
| 20260507065606 | 55 | 274 | 7.8 | 13.0 | 0.00 | 0.00 | 0.00 | 85 | 1002.0 |
| 20260507065106 | 56 | 273 | 9.6 | 13.0 | 0.00 | 0.00 | 0.00 | 84 | 1002.2 |
| 20260507064607 | 56 | 274 | 7.8 | 12.2 | 0.00 | 0.00 | 0.00 | 84 | 1001.9 |
| 20260507064106 | 56 | 269 | 8.7 | 11.3 | 0.00 | 0.00 | 0.00 | 85 | 1001.8 |
| 20260507063607 | 55 | 270 | 4.3 | 12.2 | 0.00 | 0.00 | 0.00 | 86 | 1001.8 |
| 20260507063107 | 55 | 270 | 9.6 | 12.2 | 0.00 | 0.00 | 0.00 | 87 | 1001.6 |
| 20260507062606 | 55 | 257 | 7.8 | 12.2 | 0.00 | 0.00 | 0.00 | 87 | 1001.6 |
| 20260507062107 | 55 | 250 | 7.0 | 9.6 | 0.00 | 0.00 | 0.00 | 88 | 1001.6 |
| 20260507061607 | 54 | 262 | 5.2 | 9.6 | 0.00 | 0.00 | 0.00 | 88 | 1001.7 |
| 20260507061106 | 54 | 273 | 7.0 | 9.6 | 0.00 | 0.00 | 0.00 | 88 | 1001.4 |
| 20260507054605 | 54 | 265 | 3.5 | 6.1 | 0.00 | 0.00 | 0.00 | 92 | 1001.3 |
| 20260507054106 | 54 | 260 | 3.5 | 7.0 | 0.00 | 0.00 | 0.00 | 93 | 1001.4 |
| 20260507053105 | 53 | 265 | 4.3 | 7.0 | 0.00 | 0.00 | 0.00 | 95 | 1001.3 |
| 20260507052605 | 53 | 246 | 4.3 | 7.0 | 0.00 | 0.00 | 0.00 | 95 | 1001.2 |
| 20260507052106 | 53 | 235 | 1.7 | 5.2 | 0.00 | 0.00 | 0.00 | 95 | 1001.1 |
| 20260507051606 | 53 | 235 | 3.5 | 5.2 | 0.00 | 0.00 | 0.00 | 95 | 1001.2 |
| 20260507051106 | 53 | 242 | 1.7 | 3.5 | 0.00 | 0.00 | 0.00 | 95 | 1001.0 |
| 20260507050606 | 53 | 255 | 3.5 | 3.5 | 0.00 | 0.00 | 0.00 | 94 | 1001.1 |
| 20260507050107 | 53 | 270 | 1.7 | 3.5 | 0.00 | 0.00 | 0.00 | 95 | 1001.0 |
| 20260507045606 | 52 | 284 | 1.7 | 3.5 | 0.00 | 0.00 | 0.00 | 96 | 1000.8 |
| 20260507045105 | 52 | 304 | 1.7 | 3.5 | 0.00 | 0.00 | 0.00 | 97 | 1000.6 |
| 20260507044604 | 52 | 314 | 0.9 | 1.7 | 0.00 | 0.00 | 0.00 | 98 | 1000.8 |
| 20260507044105 | 52 | 314 | 0.0 | 1.7 | 0.00 | 0.00 | 0.00 | 98 | 1000.8 |
| 20260507043606 | 52 | 314 | 0.0 | 1.7 | 0.00 | 0.00 | 0.00 | 99 | 1000.7 |
| 20260507043105 | 52 | 314 | 0.0 | 1.7 | 0.00 | 0.00 | 0.00 | 99 | 1000.6 |
| 20260507042605 | 52 | 314 | 0.0 | 1.7 | 0.00 | 0.00 | 0.00 | 99 | 1000.4 |
| 20260507042105 | 52 | 0 | 0.0 | 0.0 | 0.00 | 0.00 | 0.00 | 99 | 1000.4 |
| 20260507041604 | 52 | 314 | 0.0 | 1.7 | 0.00 | 0.00 | 0.00 | 99 | 1000.2 |
| 20260507041106 | 52 | 324 | 0.0 | 1.7 | 0.00 | 0.00 | 0.00 | 99 | 1000.2 |
| 20260507040605 | 52 | 325 | 0.9 | 1.7 | 0.00 | 0.00 | 0.00 | 99 | 1000.1 |
| 20260507040106 | 52 | 321 | 1.7 | 1.7 | 0.00 | 0.00 | 0.00 | 99 | 1000.0 |
| 20260507035604 | 52 | 323 | 0.0 | 3.5 | 0.00 | 0.00 | 0.00 | 99 | 1000.0 |
| 20260507034605 | 51 | 299 | 1.7 | 3.5 | 0.00 | 0.00 | 0.00 | 99 | 1000.1 |
| 20260507034104 | 51 | 296 | 1.7 | 3.5 | 0.00 | 0.00 | 0.00 | 99 | 1000.2 |
| 20260507033105 | 51 | 276 | 1.7 | 6.1 | 0.00 | 0.00 | 0.00 | 99 | 999.9 |
| 20260507032604 | 51 | 276 | 2.6 | 6.1 | 0.00 | 0.00 | 0.00 | 99 | 999.8 |
| 20260507032104 | 51 | 283 | 3.5 | 5.2 | 0.00 | 0.00 | 0.00 | 99 | 999.9 |
| 20260507031604 | 51 | 290 | 2.6 | 5.2 | 0.00 | 0.00 | 0.00 | 98 | 999.9 |
| 20260507030604 | 52 | 288 | 2.6 | 5.2 | 0.00 | 0.00 | 0.00 | 98 | 1000.0 |
| 20260507030104 | 52 | 280 | 1.7 | 5.2 | 0.00 | 0.00 | 0.00 | 97 | 999.6 |
| 20260507025604 | 52 | 289 | 3.5 | 5.2 | 0.00 | 0.00 | 0.00 | 97 | 999.8 |
| 20260507025103 | 53 | 299 | 3.5 | 7.0 | 0.00 | 0.00 | 0.00 | 95 | 999.6 |
| 20260507024103 | 54 | 338 | 3.5 | 5.2 | 0.00 | 0.00 | 0.00 | 90 | 999.5 |
| 20260507023603 | 54 | 111 | 0.0 | 3.5 | 0.00 | 0.00 | 0.00 | 87 | 999.3 |
| 20260507023104 | 54 | 111 | 1.7 | 3.5 | 0.00 | 0.00 | 0.00 | 86 | 999.1 |
| 20260507022603 | 54 | 111 | 2.6 | 3.5 | 0.00 | 0.00 | 0.00 | 87 | 999.2 |
| 20260507021604 | 54 | 111 | 0.0 | 3.5 | 0.00 | 0.00 | 0.00 | 87 | 999.3 |
| 20260507021104 | 54 | 114 | 1.7 | 3.5 | 0.00 | 0.00 | 0.00 | 88 | 999.2 |
| 20260507020105 | 53 | 135 | 0.0 | 1.7 | 0.00 | 0.00 | 0.00 | 95 | 999.1 |
| 20260507015603 | 53 | 151 | 0.0 | 1.7 | 0.00 | 0.00 | 0.00 | 96 | 999.2 |
| 20260507015103 | 53 | 173 | 0.0 | 3.5 | 0.00 | 0.00 | 0.00 | 96 | 999.1 |
| 20260507014603 | 53 | 173 | 1.7 | 3.5 | 0.00 | 0.00 | 0.00 | 97 | 999.1 |
| 20260507014104 | 53 | 192 | 2.6 | 5.2 | 0.00 | 0.00 | 0.00 | 98 | 999.1 |
| 20260507013602 | 53 | 213 | 3.5 | 5.2 | 0.00 | 0.00 | 0.00 | 98 | 999.0 |
| 20260507013103 | 53 | 206 | 3.5 | 3.5 | 0.00 | 0.00 | 0.00 | 97 | 999.2 |
| 20260507012100 | 53 | 224 | 2.6 | 3.5 | 0.00 | 0.00 | 0.00 | 96 | 999.1 |
| 20260507011558 | 53 | 108 | 1.7 | 5.2 | 0.00 | 0.00 | 0.00 | 95 | 998.9 |
| 20260507010557 | 53 | 90 | 2.6 | 3.5 | 0.00 | 0.00 | 0.00 | 96 | 998.9 |
| 20260507010057 | 53 | 265 | 0.0 | 3.5 | 0.00 | 0.00 | 0.00 | 97 | 998.9 |
| 20260507004557 | 53 | 237 | 1.7 | 5.2 | 0.00 | 0.00 | 0.00 | 97 | 998.9 |
| 20260507004057 | 53 | 233 | 2.6 | 5.2 | 0.00 | 0.00 | 0.00 | 96 | 998.8 |
| 20260507003557 | 55 | 154 | 3.5 | 5.2 | 0.00 | 0.00 | 0.00 | 92 | 998.6 |
| 20260507003057 | 55 | 96 | 0.0 | 3.5 | 0.00 | 0.00 | 0.00 | 90 | 998.5 |
| 20260507002056 | 54 | 89 | 1.7 | 3.5 | 0.00 | 0.00 | 0.00 | 91 | 998.4 |
| 20260507001057 | 53 | 90 | 0.0 | 9.6 | 0.00 | 0.00 | 0.00 | 94 | 998.2 |
| 20260507000556 | 53 | 90 | 7.0 | 9.6 | 0.00 | 0.00 | 0.00 | 95 | 998.1 |
| 20260507000058 | 53 | 84 | 7.0 | 9.6 | 0.00 | 0.00 | 0.00 | 95 | 997.7 |
| 20260506235556 | 53 | 62 | 3.5 | 5.2 | 0.00 | 0.00 | 0.00 | 95 | 997.8 |
| 20260506234556 | 53 | 343 | 2.6 | 7.0 | 0.00 | 0.00 | 0.00 | 96 | 998.1 |
| 20260506234056 | 53 | 338 | 4.3 | 7.0 | 0.00 | 0.00 | 0.00 | 97 | 998.2 |
| 20260506233555 | 53 | 12 | 1.7 | 7.0 | 0.00 | 0.00 | 0.00 | 97 | 997.9 |
| 20260506233056 | 53 | 341 | 0.0 | 7.0 | 0.00 | 0.00 | 0.00 | 97 | 998.0 |
| 20260506232555 | 53 | 313 | 5.2 | 7.0 | 0.00 | 0.00 | 0.00 | 97 | 998.1 |
| 20260506232057 | 52 | 310 | 1.7 | 7.0 | 0.00 | 0.00 | 0.00 | 97 | 998.2 |